This demonstration page uses our WeatherBlox Daily Observations layout. Learn more.

Left ArrowRight Arrow

Hourly Observations for February 25, 2019

Temp ( °F °C ) Dew Point ( °F °C ) Humidity (%) Winds ( mph kmh ) Pressure ( in mb ) Visibility ( mi km ) Precip ( " mm )
12:52 am 00:52 Partly Cloudy 3 -16.1 -4 -20 72 72 Calm 30.53 1034 10 16 0.00 0.00
1:52 am 01:52 Clear -1 -18.3 -5 -20.6 82 82 NW 3 6 30.55 1035 10 16 0.00 0.00
2:52 am 02:52 Clear 1 -17.2 -2 -18.9 87 87 Calm 30.54 1034 10 16 0.00 0.00
3:52 am 03:52 Clear -2 -18.9 -5 -20.6 87 87 NW 6 9 30.53 1034 10 16 0.00 0.00
4:52 am 04:52 Clear -3 -19.4 -7 -21.7 82 82 N 5 7 30.53 1034 10 16 0.00 0.00
5:52 am 05:52 Clear -4 -20 -8 -22.2 83 83 NNE 3 6 30.52 1034 10 16 0.00 0.00
6:52 am 06:52 Mostly Clear -7 -21.7 -11 -23.9 82 82 NNW 6 9 30.53 1034 10 16 0.00 0.00
7:52 am 07:52 Partly Cloudy -3 -19.4 -9 -22.8 75 75 NNW 6 9 30.53 1034 10 16 0.00 0.00
8:52 am 08:52 Mostly Cloudy 1 -17.2 -6 -21.1 72 72 NNW 6 9 30.55 1034 10 16 0.00 0.00
9:52 am 09:52 Mostly Cloudy 4 -15.6 -5 -20.6 66 66 E 9 15 30.52 1034 10 16 0.00 0.00
10:52 am 10:52 Mostly Cloudy 7 -13.9 -6 -21.1 55 55 ENE 9 15 30.53 1034 10 16 0.00 0.00
11:52 am 11:52 Mostly Cloudy 9 -12.8 -7 -21.7 48 48 VRB 6 9 30.54 1034 10 16 0.00 0.00
12:52 pm 12:52 Mostly Cloudy 11 -11.7 -4 -20 51 51 N 13 20 30.52 1033 10 16 0.00 0.00
1:52 pm 13:52 Mostly Cloudy 13 -10.6 -3 -19.4 49 49 NNE 12 19 30.48 1032 10 16 0.00 0.00
2:52 pm 14:52 Mostly Cloudy 13 -10.6 -2 -18.9 51 51 NE 12 19 30.47 1032 10 16 0.00 0.00
3:52 pm 15:52 Cloudy 12 -11.1 -3 -19.4 51 51 NNE 10 17 30.48 1032 10 16 0.00 0.00
4:52 pm 16:52 Cloudy 11 -11.7 -1 -18.3 58 58 NE 9 15 30.49 1033 10 16 0.00 0.00
5:52 pm 17:52 Cloudy 10 -12.2 1 -17.2 67 67 N 14 22 30.51 1033 10 16 0.00 0.00
6:52 pm 18:52 Cloudy 8 -13.3 0 -17.8 69 69 NNE 15 24 30.53 1034 10 16 0.00 0.00
7:52 pm 19:52 Cloudy 7 -13.9 -1 -18.3 70 70 NNE 16 26 30.54 1034 10 16 0.00 0.00
8:52 pm 20:52 Cloudy 6 -14.4 -1 -18.3 73 73 N 14 22 30.53 1034 10 16 0.00 0.00
9:52 pm 21:52 Cloudy 6 -14.4 -1 -18.3 73 73 N 13 20 30.53 1034 10 16 0.00 0.00
10:52 pm 22:52 Cloudy 6 -14.4 -2 -18.9 69 69 NNE 13 20 30.54 1034 10 16 0.00 0.00
11:52 pm 23:52 Cloudy 6 -14.4 -2 -18.9 69 69 NNE 13 20 30.54 1034 10 16 0.00 0.00

Powered by AerisWeather